Toledo Metcalf, OH

3:22 AM EDT on May 23, 2017 (GMT -0400)
Metcalf

Weather History for KTDZ - April, 2014

Change the Weather History Date:

Sunday, April 13, 2014

  Actual Average (KTOL) Record (KTOL)
Temperature  
Mean Temperature 69 °F -  
Max Temperature 78 °F 59 °F 87 °F (1941)
Min Temperature 60 °F 36 °F 19 °F (1976)
Cooling Degree Days 4    
Growing Degree Days 19 (Base 50)    
Moisture  
Dew Point 53 °F    
Average Humidity 58    
Maximum Humidity 72    
Minimum Humidity 43    
Precipitation  
Precipitation 0.00 in - - ()
Sea Level Pressure  
Sea Level Pressure 29.78 in    
Wind  
Wind Speed 12 mph (SSW)    
Max Wind Speed 23 mph    
Max Gust Speed 34 mph    
Visibility 10 miles    
Events      
Averages and records for this station are not official NWS values.
T = Trace of Precipitation, MM = Missing Value Source: NWS Daily Summary

Daily Weather History Graph

Daily Weather History Graph

Search for Another Location

Airport or City:

Trip Planner

Search our weather history database for the weather conditions in past years. The results will help you decide how hot, cold, wet, or windy it might be!

Date:

Astronomy

Apr. 13, 2014 Rise Set
Actual Time 6:57 AM EDT 8:12 PM EDT
Civil Twilight 6:28 AM EDT 8:41 PM EDT
Nautical Twilight 5:54 AM EDT 9:15 PM EDT
Astronomical Twilight 5:18 AM EDT 9:51 PM EDT
Moon 6:48 PM EDT (4/13) 5:56 AM EDT (4/13)
Length of Visible Light 14h 12m
Length of Day
13h 15m
Waxing Gibbous, 97% of the Moon is Illuminated
Apr 13
Waxing Gibbous
Apr 15
Full
Apr 22
Last Quarter
Apr 29
New
May 6
First Quarter

Hourly Weather History & Observations

Time (EDT) Temp. Dew Point Humidity Pressure Visibility Wind Dir Wind Speed Gust Speed Precip Events Conditions
12:53 AM 60.1 °F 51.1 °F 72% 29.84 in 10.0 mi South 6.9 mph - N/A   Partly Cloudy
1:53 AM 61.0 °F 51.1 °F 70% 29.83 in 10.0 mi South 5.8 mph - N/A   Overcast
2:53 AM 61.0 °F 51.1 °F 70% 29.85 in 10.0 mi South 4.6 mph - N/A   Overcast
3:53 AM 62.1 °F 51.1 °F 67% 29.82 in 10.0 mi South 11.5 mph - N/A   Partly Cloudy
4:53 AM 63.0 °F 51.1 °F 65% 29.81 in 10.0 mi South 11.5 mph - N/A   Mostly Cloudy
5:53 AM 63.0 °F 51.1 °F 65% 29.82 in 10.0 mi South 11.5 mph - N/A   Overcast
6:53 AM 63.0 °F 51.1 °F 65% 29.81 in 10.0 mi South 16.1 mph - N/A   Overcast
7:53 AM 63.0 °F 51.1 °F 65% 29.81 in 10.0 mi South 13.8 mph - N/A   Mostly Cloudy
8:53 AM 66.0 °F 52.0 °F 60% 29.81 in 10.0 mi South 12.7 mph - N/A   Clear
9:53 AM 70.0 °F 54.0 °F 57% 29.80 in 10.0 mi SSW 23.0 mph 29.9 mph N/A   Clear
10:53 AM 70.0 °F 54.0 °F 57% 29.81 in 10.0 mi SW 20.7 mph 34.5 mph N/A   Overcast
11:53 AM 72.0 °F 55.0 °F 55% 29.80 in 10.0 mi SW 21.9 mph 29.9 mph N/A   Overcast
12:53 PM 73.9 °F 55.9 °F 53% 29.80 in 10.0 mi SW 23.0 mph 33.4 mph N/A   Overcast
1:53 PM 73.9 °F 55.9 °F 53% 29.80 in 10.0 mi SW 21.9 mph 34.5 mph N/A   Overcast
2:53 PM 75.9 °F 55.9 °F 50% 29.79 in 10.0 mi SW 23.0 mph 31.1 mph N/A   Mostly Cloudy
3:53 PM 77.0 °F 55.0 °F 47% 29.77 in 10.0 mi SW 20.7 mph 33.4 mph N/A   Clear
4:53 PM 78.1 °F 54.0 °F 43% 29.76 in 10.0 mi SSW 19.6 mph - N/A   Scattered Clouds
5:53 PM 75.9 °F 52.0 °F 43% 29.74 in 10.0 mi WSW 15.0 mph - N/A   Clear
6:53 PM 75.0 °F 53.1 °F 46% 29.74 in 10.0 mi SW 9.2 mph - N/A   Mostly Cloudy
7:53 PM 73.0 °F 54.0 °F 51% 29.73 in 10.0 mi SSW 5.8 mph - N/A   Mostly Cloudy
8:53 PM 68.0 °F 54.0 °F 61% 29.71 in 10.0 mi South 4.6 mph - N/A   Clear
9:53 PM 66.0 °F 53.1 °F 63% 29.70 in 10.0 mi SSE 9.2 mph - N/A   Clear
10:53 PM 66.9 °F 52.0 °F 59% 29.68 in 10.0 mi South 11.5 mph - N/A   Clear
11:53 PM 69.1 °F 48.0 °F 47% 29.66 in 10.0 mi South 13.8 mph - N/A   Clear